Find OneWeb SL0050

NORAD ID: 45453 Int'l Des: 2020-020 Owner: ONEWEB Country: UK Constellation: oneweb operational
LEOCIRCULARPOLAR

Aktuelle Ansicht

3D-Globus wird geladen...

Über OneWeb SL0050

Beschreibung wird geladen...

Nächste Überflüge

Passes for default location (London). Set your location on the main map for personalized predictions.

Höhenverlauf

Loading altitude history...

Zweizeiliger Elementsatz

1 45453U 20020AF 26149.74496352 .00002789 00000-0 28516-3 0 9998
2 45453 88.9304 235.7130 0005567 64.8102 295.3704 14.90287153337632
Epoch: 29. Mai 2026 • Age: 21 hours

Aktueller Status

Höhe 598.7 km
Geschwindigkeit 7.57 km/s
Subsatellitenpunkt 36.96°N, 123.36°E
Startdatum 21. März 2020
Alter 6.1 years
Typ internet

Technische Details

Klassifizierung Payload
Masse 148.00 kg
Trockenmasse 140.00 kg
Gesamtmasse 148.00 kg
Länge 1.30 m
Durchmesser 1.00 m
Spannweite 5.00 m
Form Trapezoid+2 pan
Hersteller ONEWUS
Bus-Typ ARROW
Phasenstatus In Orbit
Besitzer/Staat ONEWEB/UK

Most Searched